Live-Position
3D-Globus wird geladen...
Über Starlink 4632
Group: 3 satellites
Beschreibung wird geladen...
Nächste Überflüge
Passes for default location (London). Set your location on the main map for personalized predictions.
Höhenverlauf
Loading altitude history...
No altitude history available
Zweizeiliger Elementsatz
1 53679U 22105AH 26104.41020589 .00001149 00000-0 83844-4 0 9998
2 53679 97.6045 346.5075 0002137 75.3383 284.8080 15.05638799198680
Epoch: 14. Apr. 2026 •
Age: 10 hours
Aktueller Status
Höhe 561.6 km
Geschwindigkeit 7.59 km/s
Subsatellitenpunkt 81.91°N,
137.88°E
Startdatum 31. Aug. 2022
Alter 3.6 years
Typ internet
Startgruppe
Falcon 9 •
Group 3-4 •
41 satellites
Starlink 4622
53648
Starlink 4386 53649
Starlink 4380 53650
Starlink 4388 53651
Starlink 4374 53652
Starlink 4390 53653
Starlink 4420 53654
Starlink 4470 53655
Starlink 4466 53656
Starlink 4452 53658
Starlink 4473 53660
Starlink 4472 53661
Starlink 4357 53662
Starlink 4457 53663
Starlink 4471 53664
Starlink 4334 53665
Starlink 4406 53667
Starlink 4458 53668
Starlink 4464 53669
Starlink 4459 53670
...and 20 more
Technische Details
Klassifizierung Payload
Masse 300.00 kg
Trockenmasse 290.00 kg
Gesamtmasse 300.00 kg
Länge 0.20 m
Durchmesser 2.80 m
Spannweite 9.00 m
Form Box + pan
Hersteller SPXS
Bus-Typ Starlink
Phasenstatus In Orbit
Besitzer/Staat SPXS/US
Most Searched
Loading...